Theta_e
340 342 342 342 342 341 341 341 340 342 342 346 346 349 351 351 354 355 355 356 357 357 357 354 353 354 356 355 355 359 362 363 359 357 359 362 362 365 368 367 370 370 370 367 367 364 364 365 364 364 362 361 360 360 362 360 363 363 363 364 359 356 357 357 356 357 354 349 353 348 350 351 350 354 350 347 346 345 344 343 347 349 351 351 358
342 341 342 342 341 341 342 340 342 339 342 345 347 350 352 353 354 355 355 355 356 356 354 354 356 353 354 355 356 355 360 360 359 357 367 361 368 368 368 368 369 367 367 366 366 364 363 362 364 362 361 362 362 366 366 363 362 363 359 360 362 358 356 355 351 357 346 342 343 342 345 348 350 348 345 343 342 342 342 348 352 346 346 350 352
340 341 342 341 343 341 342 340 340 340 342 343 347 350 352 353 356 357 355 355 355 356 355 356 357 357 356 356 357 356 363 362 362 358 363 360 365 366 369 370 369 365 366 365 365 363 363 363 362 362 362 362 362 363 363 362 362 363 362 357 354 359 358 357 355 358 344 347 350 346 337 338 345 344 344 344 343 344 343 343 346 344 347 348 355
340 341 341 342 342 341 342 340 341 340 342 343 346 348 350 354 357 357 357 356 355 358 358 358 358 360 361 361 361 360 360 362 364 363 363 362 361 362 366 369 366 364 362 362 364 366 365 363 361 361 364 365 364 363 361 362 364 363 359 362 361 352 350 349 356 355 355 352 342 342 340 338 333 338 341 341 343 344 341 340 343 343 348 349 356
341 341 342 342 342 341 342 342 341 340 340 344 344 347 346 352 357 359 358 356 356 359 359 360 360 359 361 363 363 363 362 362 361 358 362 363 361 361 359 363 365 365 362 363 364 366 366 365 364 364 364 365 367 363 362 361 361 361 363 362 359 352 345 346 350 351 355 355 350 342 339 336 336 337 335 341 343 341 340 335 344 344 345 351 352
344 343 342 342 341 342 344 344 341 341 341 343 343 345 348 351 358 361 359 358 356 361 362 361 359 358 357 357 356 357 357 357 356 355 356 354 356 359 361 362 364 366 365 365 364 363 364 365 366 365 365 363 364 363 362 363 361 362 362 363 357 360 358 346 346 353 351 357 354 351 349 343 341 341 338 335 350 340 340 339 345 345 343 349 351
346 344 343 342 342 342 344 344 342 342 344 344 343 345 348 351 359 360 360 359 358 363 363 362 361 360 358 356 354 354 354 360 360 360 357 354 360 359 362 364 365 365 365 367 366 365 366 366 368 366 364 365 366 369 366 364 360 363 362 362 360 362 357 351 346 345 351 352 351 350 350 352 350 348 338 340 337 342 343 341 342 344 345 345 349
346 344 344 344 343 343 344 345 343 343 345 346 345 345 349 353 358 360 360 359 360 363 363 363 362 360 358 355 353 353 352 358 362 360 359 361 359 360 361 362 365 366 364 367 368 367 367 366 368 369 366 367 364 364 363 362 362 363 364 362 363 361 359 353 350 346 345 348 353 350 351 353 353 349 350 347 342 338 338 342 343 343 345 345 346
345 344 344 344 344 344 346 346 346 345 345 346 346 349 350 354 358 360 360 361 361 365 364 361 363 359 357 355 354 354 354 361 363 364 362 363 362 363 362 362 363 368 366 368 368 368 369 368 368 370 368 367 365 365 362 364 365 361 362 362 361 361 360 356 355 352 349 348 351 352 353 353 351 351 352 352 346 340 335 339 341 344 344 345 348
345 344 345 347 346 346 348 349 347 345 346 348 348 349 352 356 359 359 359 360 362 365 366 363 362 360 358 357 357 355 355 359 360 361 363 363 363 366 367 365 362 364 368 369 371 369 369 369 366 367 370 368 363 364 364 366 366 364 364 362 363 360 358 356 352 351 352 352 351 353 353 352 352 349 346 344 344 347 339 336 338 340 340 342 348
343 346 346 345 348 348 349 348 349 347 349 348 347 348 352 356 359 360 359 358 361 365 367 365 363 361 359 359 358 358 357 357 359 360 365 361 364 363 365 366 364 360 363 367 368 370 369 370 365 366 367 370 366 371 368 362 362 362 363 363 362 360 357 356 354 354 353 353 351 352 352 349 349 347 347 347 345 342 342 340 338 341 338 336 345
344 346 348 346 348 349 348 349 349 349 349 349 348 347 351 356 360 361 361 360 360 363 366 363 361 361 362 361 360 360 359 356 358 363 363 361 361 363 364 363 365 364 363 362 359 365 370 369 368 366 368 369 367 372 369 366 363 362 360 363 363 362 361 359 357 353 353 355 351 351 348 349 351 349 348 350 346 349 348 344 341 341 342 342 340
343 346 346 348 346 346 348 349 350 351 350 350 349 348 351 356 360 361 361 362 362 364 363 360 361 360 361 361 361 361 360 359 358 358 360 361 359 363 365 365 362 364 362 361 359 362 368 369 369 368 368 370 370 370 371 371 368 364 363 362 361 362 362 361 357 355 350 354 349 350 349 350 350 351 352 348 348 352 349 344 344 340 339 341 345
349 349 347 347 347 347 349 348 350 350 349 349 350 351 351 353 359 361 363 363 365 365 364 360 359 360 361 361 362 362 360 360 358 356 357 359 360 361 362 360 361 361 362 363 361 361 362 367 371 371 373 373 375 376 374 371 371 369 368 364 359 362 362 362 361 356 355 355 354 352 351 348 347 349 349 347 348 347 344 343 347 346 342 342 342
347 345 344 344 347 348 349 349 349 350 350 350 350 351 353 353 359 362 364 364 365 365 365 363 360 360 360 360 361 362 359 359 358 357 357 356 356 358 361 359 359 362 361 364 367 365 364 366 363 369 373 376 374 371 373 374 372 369 369 367 364 360 362 361 359 356 351 353 355 354 350 351 350 351 348 347 348 351 348 349 347 345 341 339 337
344 346 346 347 349 345 349 350 351 351 352 351 351 352 352 354 360 362 364 366 365 365 365 365 363 361 363 362 360 362 363 359 360 360 359 357 358 356 359 361 359 359 361 362 362 365 365 366 366 364 373 372 375 373 372 371 372 367 368 368 364 360 361 362 360 356 353 354 353 355 354 350 353 351 352 353 352 356 354 354 352 350 346 339 339
342 344 345 349 346 349 348 350 348 349 349 350 353 354 355 356 359 363 365 366 365 366 365 366 365 363 364 363 360 360 359 358 355 358 355 358 359 357 355 357 359 362 360 362 363 365 365 364 365 362 365 372 374 372 373 372 376 369 369 369 364 361 363 361 358 358 358 352 353 354 353 352 354 357 356 355 360 361 356 354 353 349 352 349 343
340 343 346 350 350 348 348 350 349 349 350 351 353 354 355 357 360 361 363 364 364 365 363 365 365 363 364 364 363 360 356 356 354 355 356 356 356 359 355 356 356 358 360 357 361 362 365 365 366 365 364 365 367 367 370 371 377 367 368 371 367 367 364 363 362 359 357 357 355 354 354 352 355 355 355 354 362 362 357 356 353 354 353 352 350
339 339 342 346 347 347 350 352 353 352 353 355 354 354 354 356 358 357 359 362 362 361 361 364 365 361 362 364 363 360 357 356 355 357 357 355 353 354 354 354 355 357 361 362 362 360 363 365 366 364 365 364 365 367 371 370 375 368 365 365 366 369 369 365 365 361 358 357 357 354 356 355 356 354 356 355 358 360 359 355 355 355 355 356 355
337 337 338 342 346 346 349 350 349 350 352 354 354 353 353 354 356 358 359 361 362 360 362 363 363 361 359 365 365 364 361 357 356 356 353 354 354 352 353 351 354 354 356 359 360 359 360 361 361 360 358 360 362 363 361 368 373 367 365 363 365 366 366 366 364 363 355 356 357 356 358 357 356 358 357 356 356 361 360 355 355 356 359 358 360
337 337 338 341 346 348 349 351 347 349 349 351 351 352 350 354 354 356 358 359 360 359 360 364 362 362 362 364 364 364 361 357 355 355 354 355 355 356 353 352 355 354 355 356 359 359 360 359 358 359 357 360 362 362 363 366 367 367 367 365 366 367 365 365 365 364 360 359 359 358 359 359 359 357 357 355 354 356 359 357 357 355 353 359 359
335 337 338 339 343 345 347 349 350 346 348 349 348 349 350 350 355 355 354 356 355 354 359 362 364 363 361 362 362 364 363 359 355 354 354 353 355 356 356 355 352 355 356 354 359 358 359 358 357 358 360 357 362 365 360 361 364 365 365 361 363 368 369 365 364 364 364 361 361 361 359 359 360 357 357 355 354 350 353 352 353 352 352 352 359
331 335 337 338 339 341 344 346 348 351 350 352 351 352 348 350 350 351 350 350 355 355 357 363 363 363 363 362 362 362 363 360 355 353 351 351 353 357 357 355 352 352 356 356 355 356 359 360 359 359 361 360 363 362 362 361 362 364 365 362 359 361 363 362 362 363 363 364 361 361 360 360 357 357 357 356 355 354 352 350 350 351 351 351 356
329 331 334 338 338 338 340 343 344 347 351 352 353 354 351 352 354 350 350 356 353 354 356 359 361 362 363 362 363 360 358 357 355 352 351 351 350 353 357 355 352 350 351 356 356 355 356 361 359 359 360 361 361 361 362 362 361 362 364 364 364 363 361 360 360 360 359 360 360 361 359 358 357 357 358 357 355 354 354 355 355 356 357 355 358
328 328 329 333 337 337 337 338 340 343 346 349 351 351 349 354 357 352 352 352 352 354 353 356 359 360 360 361 361 359 355 356 354 351 350 350 349 348 353 354 353 349 348 353 355 357 359 359 356 358 359 360 360 361 362 360 360 361 363 362 363 363 363 362 362 361 360 360 359 359 359 359 359 356 358 358 358 358 356 354 354 355 356 356 357
328 328 328 328 331 335 336 337 338 339 341 346 349 349 351 354 353 350 355 356 357 355 355 355 357 359 361 361 361 359 356 355 354 352 349 348 348 347 347 352 353 350 348 347 353 353 353 356 358 360 360 361 363 363 364 363 359 359 360 360 360 360 359 360 360 360 360 360 358 360 359 359 358 357 357 359 361 359 358 355 356 356 356 358 361
325 326 327 329 329 330 332 333 333 336 340 343 344 345 352 354 353 353 355 353 357 361 358 356 359 354 357 358 359 361 358 355 355 354 351 348 348 348 346 346 351 352 348 346 347 353 354 353 357 358 357 358 361 362 365 365 362 359 358 358 354 355 355 356 358 357 357 358 358 358 360 359 359 359 358 359 360 360 358 361 361 360 360 360 359
325 326 326 327 329 330 330 330 330 331 335 339 340 341 346 351 352 352 353 353 355 354 354 357 354 355 358 357 360 362 361 360 357 360 357 352 348 347 349 348 349 350 350 347 345 346 352 353 353 356 357 356 359 361 363 365 364 360 356 355 355 353 352 354 354 355 355 354 355 356 356 358 358 360 359 360 361 360 363 362 362 362 362 361 360
324 325 326 326 327 330 330 330 330 329 330 334 336 338 342 347 351 354 355 355 357 357 357 355 352 355 359 362 362 361 362 362 361 361 359 357 353 352 353 351 350 348 348 349 348 345 348 353 354 355 356 353 351 356 359 361 363 363 359 354 354 355 353 352 352 351 353 353 353 353 354 355 362 367 364 364 363 363 360 361 364 365 366 363 363
323 324 325 326 327 329 330 330 330 329 329 331 334 335 337 339 344 348 351 355 355 356 358 357 354 357 358 362 365 366 365 364 362 361 363 361 359 356 351 350 349 349 352 353 352 349 347 349 353 355 355 352 349 350 357 348 352 362 362 354 353 357 357 354 353 352 350 349 350 350 351 364 364 367 364 362 358 362 364 364 368 366 364 365 364
323 325 325 327 327 328 329 329 330 330 329 330 332 335 335 336 339 343 348 354 355 354 356 356 357 358 361 362 363 363 364 364 365 363 362 363 362 359 357 360 356 353 357 359 355 350 347 347 349 353 355 353 351 348 345 337 338 344 359 359 353 355 358 357 353 354 352 348 349 350 350 360 370 369 368 356 354 352 356 354 352 356 362 374 365
323 323 325 326 326 327 327 328 328 329 330 330 331 333 335 336 336 339 342 347 350 355 351 353 354 356 357 357 359 364 365 364 364 365 364 364 363 362 362 361 357 355 361 355 353 354 355 349 346 348 351 355 354 346 333 333 335 336 346 361 354 350 350 354 354 352 352 351 348 347 347 347 349 355 358 369 360 352 348 349 348 348 349 349 351
323 324 325 324 325 326 328 328 328 328 328 330 330 331 334 337 337 338 340 341 346 351 354 353 353 351 354 357 356 359 362 363 364 364 365 365 365 363 361 360 356 358 358 361 362 356 356 356 352 351 347 349 354 343 330 330 333 333 334 349 351 350 346 346 351 353 353 352 351 349 345 344 344 360 363 359 371 368 349 343 346 347 347 345 339
323 324 324 326 326 326 327 329 331 329 328 331 332 331 334 338 340 341 338 339 341 346 350 351 352 353 353 354 357 356 358 362 364 363 364 363 363 363 361 360 359 359 360 359 359 361 360 363 359 356 356 351 354 346 329 327 329 330 332 340 355 346 347 347 349 349 350 352 352 350 349 348 347 353 364 359 364 369 370 365 362 362 362 359 347
321 323 325 326 326 326 327 328 328 329 330 330 330 330 333 337 338 338 339 341 341 343 346 346 347 351 353 354 353 355 355 357 358 360 363 362 361 361 361 362 357 357 358 359 359 360 361 361 360 358 357 354 353 338 326 325 325 326 329 335 357 348 343 344 347 349 355 351 358 352 353 350 355 357 352 363 362 365 371 371 368 363 363 363 363
319 320 322 324 325 325 326 327 329 330 328 330 330 330 330 333 335 335 337 338 338 340 341 341 341 343 345 347 350 350 353 356 357 357 358 360 359 362 361 361 361 357 358 359 361 361 360 360 361 360 357 356 355 334 324 323 323 324 327 350 362 356 349 345 345 350 351 357 356 355 357 357 358 363 358 347 357 368 367 370 371 370 365 362 360
320 318 319 323 324 324 327 329 329 329 327 329 331 329 330 330 332 333 335 335 336 337 338 339 339 338 340 343 345 349 352 354 355 356 356 354 355 355 359 361 360 360 360 361 357 357 363 362 361 361 360 360 358 343 322 320 320 322 330 356 362 360 357 354 351 353 352 350 351 357 365 356 357 365 353 335 336 355 366 365 367 369 368 365 362
318 320 320 322 322 322 323 325 328 329 329 330 331 330 329 330 330 330 331 334 334 334 336 338 337 338 340 342 345 347 349 350 352 353 352 351 352 354 352 351 355 355 352 355 356 353 354 354 357 357 356 361 359 348 318 317 318 319 335 358 360 360 359 358 357 357 354 352 356 356 364 359 357 359 341 331 331 350 366 363 362 362 362 361 362
318 318 320 320 321 322 322 323 324 325 328 330 331 332 329 330 330 329 330 332 331 332 335 334 335 338 339 341 347 347 346 346 348 349 350 351 349 352 355 356 356 356 357 357 358 355 355 358 358 357 352 355 359 352 316 317 316 317 335 360 361 360 358 359 359 358 359 358 360 360 360 359 359 356 336 329 329 347 364 362 361 359 357 357 358
317 319 320 320 323 322 322 321 320 323 326 328 329 330 330 331 331 330 331 332 332 332 335 337 338 338 339 342 344 344 345 343 346 347 351 354 356 353 353 353 354 355 355 357 359 357 356 356 357 355 353 357 355 356 349 313 315 314 321 360 361 358 356 357 360 359 360 361 360 360 361 336 333 334 332 323 325 329 360 364 362 358 355 353 355
317 319 321 320 321 321 320 320 322 324 323 326 328 327 329 330 330 330 331 332 332 334 334 335 336 337 337 339 341 342 341 342 344 348 349 351 353 351 352 352 350 352 356 357 355 357 357 356 357 359 360 359 359 359 353 319 312 312 316 330 361 359 358 358 359 360 360 359 360 360 359 342 327 326 325 320 319 320 337 364 364 362 361 359 357
320 320 320 320 319 321 321 321 323 323 324 325 326 327 328 330 329 329 331 332 333 333 334 334 334 334 336 338 340 342 342 342 346 347 349 348 351 352 350 350 350 352 353 354 355 355 356 356 358 358 362 361 361 350 358 329 315 311 312 316 351 361 360 360 359 361 361 361 361 361 363 348 326 325 323 320 317 319 322 362 367 338 337 338 369
318 319 320 319 319 319 320 322 323 324 324 324 325 326 328 329 329 331 332 333 332 333 333 333 334 333 334 336 338 340 341 341 344 345 345 346 349 351 351 350 348 348 350 352 354 355 355 355 356 361 362 361 363 363 336 351 319 313 311 311 320 342 338 365 359 359 361 363 363 364 363 352 325 320 319 319 318 317 322 345 334 330 328 329 350
317 318 318 319 319 320 320 322 322 326 327 326 326 326 327 328 330 333 333 334 334 333 333 332 333 334 333 334 335 336 338 343 343 344 344 345 347 348 349 348 346 347 349 350 352 354 354 353 354 356 359 362 363 361 343 338 339 315 312 310 312 316 326 352 359 358 360 361 364 364 360 337 320 315 316 318 319 320 338 327 324 327 328 333 357
316 316 319 318 318 318 319 321 322 324 326 328 327 326 326 327 331 333 333 332 332 332 332 331 331 331 332 332 333 335 337 340 341 342 343 344 346 348 348 348 347 348 350 349 350 352 353 353 355 355 356 357 361 361 361 342 330 326 315 311 310 311 316 319 343 353 359 361 346 334 328 328 320 314 315 316 319 319 319 324 322 324 333 353 357
316 317 317 317 317 318 318 319 321 323 324 326 327 327 326 327 330 332 332 331 331 331 330 331 330 330 329 330 330 332 334 338 339 340 341 343 344 345 346 348 349 350 351 351 351 352 353 354 354 353 354 356 357 358 358 360 342 334 324 315 312 312 315 317 324 343 335 331 327 326 325 326 322 321 333 340 344 343 323 321 324 328 347 352 355
314 316 316 316 317 316 317 317 318 321 322 323 324 326 327 327 328 329 331 331 331 330 329 330 330 329 329 330 331 331 332 333 336 339 340 341 341 343 345 345 345 346 348 349 351 351 351 351 350 353 355 355 354 354 356 358 361 357 348 338 324 321 315 313 325 333 333 343 348 349 347 338 338 331 333 339 340 342 340 335 338 342 347 352 353
315 315 316 316 316 316 316 317 317 319 321 322 323 324 326 327 327 327 329 330 329 328 327 328 329 329 329 329 329 331 332 331 331 333 334 337 339 341 341 343 345 343 341 342 344 345 345 346 348 350 352 353 353 352 353 355 357 360 359 356 344 339 338 335 335 339 344 348 351 338 341 353 358 356 350 354 356 359 356 350 350 349 350 352 352
313 314 315 315 316 316 316 317 318 320 320 321 322 323 325 327 327 328 329 328 327 327 328 328 328 329 329 330 330 330 328 328 330 333 333 335 336 337 338 339 342 343 341 339 338 338 339 342 344 346 347 348 350 351 355 341 353 330 344 350 351 353 351 345 339 330 346 348 347 346 345 347 351 353 353 355 355 356 356 357 357 357 356 355 354
314 314 315 316 316 315 316 317 318 320 320 322 322 324 325 325 327 328 328 327 327 326 326 327 328 328 329 329 328 327 328 330 329 330 331 333 333 322 329 338 339 338 327 316 316 332 336 339 338 341 345 345 348 353 333 319 314 312 311 312 319 319 318 337 332 320 334 343 344 344 345 345 347 352 353 353 354 355 355 354 354 344 354 356 354
313 314 314 315 315 316 316 316 318 320 320 321 322 323 325 325 327 328 327 327 326 324 323 324 326 326 326 327 328 328 330 331 331 331 332 330 331 334 313 310 319 325 320 312 306 305 306 309 325 331 334 325 323 319 312 310 309 308 308 307 306 305 305 305 314 330 338 341 340 341 345 348 350 354 355 355 355 355 354 355 353 354 356 354 352
Wind_Speed
16 16 16 15 15 13 13 13 13 12 12 11 12 13 11 11 9 9 8 9 8 7 7 7 7 6 6 6 6 6 5 5 4 6 7 1 6 5 6 5 5 5 4 4 4 3 3 4 4 3 3 3 2 2 1 4 3 3 2 1 2 0 3 1 2 2 2 2 0 2 3 3 3 4 6 4 4 6 5 3 3 4 5 3 3
18 16 17 16 14 16 13 12 13 14 12 12 12 12 11 12 10 9 8 9 8 8 7 7 7 6 6 6 6 6 6 5 5 4 0 9 6 6 5 6 6 5 5 5 4 4 4 4 4 4 3 3 2 2 3 3 3 3 4 3 3 0 1 1 4 1 2 3 2 3 2 3 2 4 6 6 6 5 5 4 2 5 7 7 5
17 17 17 16 17 17 13 13 13 14 14 13 12 12 12 11 10 9 9 8 9 9 8 7 7 6 6 6 5 6 5 5 6 6 10 6 7 7 5 6 6 5 6 5 4 5 4 4 5 4 4 3 3 3 4 4 4 3 4 3 2 3 1 2 2 3 3 2 3 1 2 3 2 3 3 3 5 4 5 3 4 7 5 5 3
18 18 19 18 17 16 14 14 13 14 13 13 13 13 11 10 11 10 9 9 8 8 8 7 7 6 5 5 5 5 5 4 4 3 3 7 7 7 6 6 6 6 7 6 5 4 5 5 4 4 5 4 4 4 4 4 4 3 4 2 2 3 2 2 3 3 2 1 2 1 3 4 5 4 4 5 3 2 7 8 6 6 5 4 3
17 19 18 18 17 17 15 14 14 14 14 13 14 13 10 12 12 12 10 9 9 9 9 8 7 7 4 5 5 4 6 4 5 5 4 5 6 7 8 7 7 6 7 6 6 5 5 4 4 4 4 5 4 4 4 5 4 5 2 2 2 2 3 1 1 4 3 3 3 1 3 3 3 3 5 4 1 4 7 6 4 5 6 1 2
14 18 18 18 17 17 16 16 15 14 14 14 14 14 13 12 12 12 9 9 9 10 9 8 7 7 6 6 6 6 5 6 5 6 7 6 6 7 8 7 7 6 6 6 6 6 6 5 5 5 5 5 4 4 4 3 4 4 5 3 3 1 1 2 3 2 2 2 1 2 2 3 2 4 1 1 5 5 4 3 4 5 6 5 2
12 14 17 18 18 18 18 16 16 15 14 14 13 14 13 14 13 12 10 9 10 10 11 8 8 8 8 8 7 6 6 5 4 4 4 7 6 9 7 7 7 6 7 6 6 6 6 6 5 5 5 5 4 3 4 5 5 4 4 2 1 2 1 1 1 4 3 3 4 2 1 3 3 2 3 0 2 5 5 4 5 5 7 6 6
9 9 12 16 18 18 18 18 16 15 15 14 14 14 14 14 14 13 10 10 9 10 11 9 9 8 9 8 7 6 6 5 6 5 5 2 6 7 6 7 6 6 6 6 6 6 6 6 6 5 5 6 5 5 4 4 3 3 3 3 1 1 1 1 2 2 3 1 4 2 3 5 2 3 4 2 2 1 1 2 5 6 7 6 3
10 8 14 17 18 18 17 17 16 16 16 15 14 14 13 14 14 13 12 11 10 12 12 11 9 9 8 8 7 6 6 6 6 5 4 4 5 6 6 7 6 5 6 6 6 6 6 6 6 5 5 5 5 4 5 4 4 4 4 3 3 2 2 1 0 0 3 3 2 1 2 1 1 1 2 1 2 2 4 2 3 3 4 3 4
12 13 14 13 17 17 17 17 17 15 15 15 15 14 14 13 14 15 13 11 11 12 12 12 11 9 9 8 8 7 6 6 6 5 6 5 5 6 4 6 6 6 6 6 6 7 6 6 6 6 5 5 5 5 4 5 5 5 5 4 4 4 2 2 3 1 2 2 2 1 0 1 1 1 4 4 2 1 2 4 4 3 3 2 3
9 4 12 16 16 16 17 17 16 15 14 15 15 15 15 14 15 15 14 12 12 13 12 13 11 10 9 9 9 9 8 7 6 8 6 6 6 6 6 5 6 6 7 7 7 7 7 6 6 6 5 4 4 3 4 5 6 6 5 5 5 4 3 3 2 1 1 1 1 1 2 3 1 0 1 3 0 2 2 5 5 1 5 6 2
9 13 14 10 10 15 14 16 16 16 14 15 15 14 15 14 15 16 15 14 13 13 13 12 12 11 10 10 10 9 9 7 7 8 7 8 7 6 5 6 5 6 6 7 7 8 6 6 5 5 4 4 4 3 4 4 5 6 6 5 5 5 4 2 2 3 2 3 4 4 4 3 2 3 1 4 2 3 3 4 2 1 4 5 4
9 2 0 4 8 10 14 16 16 15 14 15 15 15 15 15 16 16 16 15 13 13 14 13 12 12 10 10 10 8 9 8 8 8 8 7 7 6 6 5 6 5 6 6 7 8 7 6 5 5 4 4 4 3 3 3 2 3 4 6 5 6 5 5 4 4 5 2 2 2 3 2 2 3 1 4 5 2 3 3 6 3 3 3 0
3 2 3 7 9 11 14 13 13 14 16 15 15 14 13 14 16 16 16 15 14 13 14 13 13 12 11 10 9 9 9 9 8 8 8 7 7 7 7 6 6 7 6 6 6 7 7 7 6 5 5 4 4 4 4 4 3 3 4 5 6 5 5 6 5 5 3 2 3 3 3 3 4 4 5 3 4 5 4 4 1 4 7 5 3
3 3 5 7 6 14 9 10 12 13 15 15 14 13 13 14 15 16 16 15 15 15 13 14 12 12 11 11 10 9 9 9 8 7 8 8 8 8 7 7 7 6 6 6 5 6 7 7 7 6 6 6 5 5 4 4 4 4 3 5 5 6 5 5 6 6 5 5 3 2 3 4 3 3 3 5 4 1 2 0 1 3 6 3 6
6 6 5 8 8 14 9 7 8 10 12 13 14 13 14 13 15 17 16 16 15 15 13 13 13 12 12 12 12 10 9 9 8 8 7 8 8 8 8 7 6 7 6 7 7 6 6 6 7 7 7 7 6 6 6 5 5 4 4 4 5 5 6 6 5 6 6 5 5 4 2 4 1 4 3 3 2 2 2 2 1 3 3 3 2
5 4 6 8 11 13 7 8 9 9 11 12 12 13 13 13 15 16 16 15 15 15 14 13 13 12 13 13 12 12 12 12 11 11 11 9 8 9 8 9 8 7 7 7 8 7 7 7 7 8 7 7 7 7 6 5 5 5 5 4 5 5 5 6 5 5 6 7 6 6 5 4 3 1 3 3 1 2 2 1 2 2 2 3 3
7 5 4 8 8 7 7 12 10 12 13 12 13 14 12 13 15 16 16 17 16 15 15 13 13 13 13 13 13 13 12 13 11 11 11 9 9 8 8 8 9 8 7 7 7 8 7 7 7 6 7 8 7 8 7 7 6 5 5 5 5 4 5 5 5 6 6 5 6 5 6 5 5 4 4 4 2 3 3 2 3 1 0 2 2
7 7 9 4 7 3 3 3 2 2 3 3 7 7 11 13 14 16 17 17 17 15 14 13 13 12 11 12 14 13 12 12 11 10 11 10 11 10 10 8 9 9 8 7 8 9 8 8 7 8 7 8 7 7 8 7 7 6 6 6 6 5 5 5 5 5 6 6 6 6 4 5 4 5 4 5 4 4 4 4 3 1 2 1 2
8 8 8 9 7 4 4 8 6 2 1 5 8 9 10 14 14 13 15 14 16 16 15 14 15 13 12 13 13 12 12 11 11 11 11 12 11 11 11 11 10 10 9 9 9 9 9 10 9 9 9 9 8 8 8 8 7 6 6 6 6 7 6 6 6 6 6 6 6 6 6 5 5 5 5 4 3 4 4 5 4 4 4 3 2
5 5 6 6 7 7 4 6 6 6 8 10 10 13 16 11 14 16 13 14 14 14 15 13 13 13 13 14 14 13 14 12 13 13 12 12 11 11 10 10 9 10 10 11 10 10 10 10 10 9 9 8 8 8 8 7 7 7 6 6 6 7 7 7 6 6 7 5 5 6 6 6 6 6 5 6 6 6 6 5 4 4 5 5 4
10 8 7 6 8 9 12 11 9 5 8 12 11 11 12 12 14 13 13 12 15 15 13 14 13 12 15 14 14 13 14 13 14 13 13 12 11 11 10 10 11 11 10 11 11 11 10 10 10 9 8 9 8 8 9 8 8 8 8 7 7 7 8 8 7 7 7 6 6 6 7 7 7 8 7 7 7 7 8 7 7 6 6 6 5
12 11 8 7 10 10 11 12 12 6 1 3 5 6 8 11 10 9 13 16 16 15 14 13 13 14 15 14 14 14 13 15 15 13 14 14 13 12 12 11 11 11 11 11 11 12 10 11 10 9 9 9 8 9 9 8 8 9 9 8 8 9 9 8 8 8 8 7 7 7 8 8 7 8 8 8 8 7 7 7 8 7 7 6 6
12 11 11 10 10 12 11 11 10 9 8 10 9 6 6 9 9 9 9 10 13 13 12 12 14 15 16 15 14 13 15 15 15 14 15 15 14 13 12 13 13 11 12 11 11 11 11 10 11 10 11 10 10 10 10 10 9 9 9 9 9 8 8 9 9 9 9 9 8 8 9 9 8 8 7 7 7 8 7 6 5 4 4 5 4
13 13 12 12 14 14 12 10 9 8 9 8 8 7 8 5 3 6 15 9 9 8 9 13 16 15 15 15 16 15 15 15 15 14 16 15 15 14 13 14 13 13 12 12 11 11 10 11 12 12 12 12 12 11 11 11 10 10 10 10 9 9 8 9 9 9 9 9 9 10 9 9 8 8 8 8 8 9 8 7 7 6 6 6 6
13 14 15 15 13 12 13 12 10 9 9 9 8 9 9 9 9 2 2 8 11 6 7 9 12 12 12 14 14 15 16 16 16 15 16 15 14 14 14 14 14 14 13 13 13 12 11 12 12 13 13 12 12 11 11 11 12 11 10 10 10 10 10 10 10 10 10 10 10 10 10 9 9 10 9 9 8 9 8 8 8 7 7 7 7
13 13 12 12 14 15 14 14 13 12 12 10 11 11 9 9 11 11 10 1 1 6 11 17 13 13 12 11 14 14 14 15 15 14 14 14 14 15 15 14 14 14 14 14 14 14 12 13 13 13 14 13 13 13 11 12 12 11 11 11 11 11 11 10 10 11 11 11 11 11 10 11 10 10 11 10 9 9 8 9 8 8 7 7 7
11 13 14 14 14 14 14 13 14 13 14 13 12 11 9 6 5 7 8 10 7 6 7 13 8 10 7 11 11 12 13 12 12 12 13 14 14 15 13 12 12 15 15 15 15 15 14 13 14 14 13 13 13 13 13 12 12 12 12 12 12 11 12 11 11 11 11 11 11 12 12 12 12 11 11 11 10 9 8 9 8 8 8 9 8
13 13 13 13 14 13 13 13 13 14 14 13 11 10 11 9 8 4 5 9 8 7 10 8 5 9 7 11 12 12 11 11 11 11 12 13 13 12 12 12 12 13 14 14 15 15 14 14 14 14 14 13 13 13 12 13 13 13 12 13 12 12 12 11 11 12 12 11 11 12 12 12 12 12 13 11 10 8 8 9 8 8 8 9 8
13 13 12 12 12 13 13 13 13 13 13 13 10 11 10 11 10 8 8 8 11 6 6 5 6 9 12 9 8 9 9 10 10 11 11 12 13 13 14 14 14 14 12 12 12 13 15 15 15 14 14 13 13 12 12 16 15 12 13 12 11 11 12 11 11 11 12 12 12 12 12 15 14 15 15 14 12 9 6 7 6 8 9 8 8
12 11 12 12 12 13 13 13 13 13 13 11 11 11 10 11 11 12 10 5 9 9 6 6 5 7 13 9 8 9 9 9 10 11 11 11 12 12 12 11 12 12 11 10 12 14 15 15 16 15 15 14 13 12 15 17 16 16 14 13 12 11 11 12 12 11 11 12 12 12 12 11 11 12 14 16 14 14 11 10 11 8 5 6 8
11 11 11 12 12 13 13 13 13 13 12 11 11 11 11 10 10 12 12 11 9 7 9 8 9 11 10 15 11 9 9 10 10 11 11 11 11 12 11 12 13 14 11 13 14 14 13 15 14 15 16 15 14 15 15 18 18 17 14 12 13 12 12 12 13 13 12 12 12 12 11 11 12 13 12 12 14 16 15 14 13 12 12 11 8
10 11 11 12 12 12 12 12 12 12 11 12 12 11 11 9 9 8 9 12 12 8 7 7 8 8 12 11 15 13 10 11 10 11 11 11 11 12 13 13 15 14 13 13 13 14 15 14 15 14 15 16 15 16 15 17 19 19 18 15 12 13 14 14 13 14 13 12 11 11 12 11 10 15 14 14 12 13 14 17 16 15 14 13 13
10 10 10 10 10 10 10 11 10 11 12 10 11 11 10 10 8 6 8 9 10 10 9 8 3 2 5 10 11 14 13 10 9 10 10 11 12 12 13 13 12 12 13 13 15 15 14 13 14 14 13 14 14 14 18 18 18 19 19 15 15 15 14 14 14 14 13 14 13 12 11 11 12 9 10 14 12 12 11 11 11 10 11 14 15
8 9 9 9 10 10 10 11 10 10 10 10 10 11 10 9 10 9 7 6 9 9 8 9 10 9 6 6 8 9 13 14 12 11 9 11 11 12 13 12 12 12 13 13 13 14 14 15 15 15 15 16 15 13 17 20 19 20 20 16 15 16 15 14 14 15 12 13 12 13 13 13 10 10 9 10 12 11 11 11 12 14 13 13 13
7 8 7 8 9 9 10 9 9 9 10 10 10 10 11 10 9 9 9 8 9 9 9 8 8 9 9 9 9 8 9 9 10 13 12 11 11 9 11 9 11 11 9 12 12 13 14 15 16 16 15 16 16 15 15 18 19 19 20 12 11 14 15 14 14 13 13 11 12 13 12 12 11 10 12 12 11 11 12 12 12 12 12 13 13
6 7 7 8 8 9 9 8 8 8 10 10 9 10 10 10 10 9 10 10 10 10 11 11 11 10 10 10 10 11 11 12 8 6 7 9 11 10 10 7 8 10 10 10 11 11 9 12 15 15 15 14 14 13 15 17 18 19 14 10 11 12 13 14 14 12 12 14 14 13 12 12 12 11 12 14 13 13 12 13 12 12 11 12 12
8 6 7 8 9 9 8 8 8 7 8 8 8 9 10 10 10 10 10 10 10 10 11 12 12 12 12 12 11 11 12 13 13 11 7 5 4 3 3 2 3 3 6 10 4 8 11 15 16 16 15 14 14 11 15 17 19 18 16 11 10 11 12 13 13 13 13 13 13 17 15 14 14 13 14 15 16 13 12 13 12 13 13 13 12
7 8 9 9 9 8 9 8 8 8 8 8 7 8 9 9 9 10 10 9 10 10 10 11 12 12 11 10 9 9 11 11 11 11 7 2 3 4 6 5 3 4 7 8 7 7 8 9 6 10 14 18 17 10 12 15 17 19 16 10 10 10 12 12 12 12 13 12 11 12 16 15 14 14 15 15 17 14 12 13 13 13 13 14 13
7 7 9 9 8 8 8 9 10 9 9 9 7 7 9 8 9 9 9 9 10 10 10 10 10 11 10 10 9 8 8 8 8 8 8 6 4 6 7 9 7 5 7 8 9 8 8 8 8 9 9 4 8 15 9 9 16 17 19 12 10 11 12 13 12 12 11 12 13 13 12 17 18 16 15 15 17 18 15 14 13 13 13 15 12
9 9 9 7 7 8 9 10 9 8 9 9 8 8 8 9 9 9 9 9 8 9 10 10 10 11 11 11 11 9 10 11 9 7 6 5 5 5 4 4 7 7 8 7 9 8 10 10 9 7 5 6 7 8 4 3 10 13 19 16 10 12 13 12 12 12 12 13 12 13 14 14 19 19 17 16 17 18 18 14 14 14 14 11 7
8 9 8 8 8 9 9 10 9 10 10 9 10 10 9 9 9 9 10 9 9 9 9 10 11 11 11 11 12 11 10 8 6 5 7 5 4 4 4 5 5 5 8 10 11 10 10 9 8 9 7 7 7 9 8 15 18 15 15 20 13 12 13 12 13 12 12 13 13 13 13 14 19 21 21 18 18 17 20 13 16 16 15 10 7
8 9 9 10 9 10 10 10 10 10 10 9 10 10 10 9 9 10 9 9 10 10 10 10 10 11 10 10 10 12 11 8 6 6 6 7 6 5 6 6 6 7 8 9 10 10 11 11 10 7 7 8 6 4 9 7 14 18 21 20 21 16 12 11 14 14 14 13 13 14 14 15 17 20 21 20 19 19 15 13 19 17 14 10 5
8 8 9 11 11 10 11 11 10 9 9 9 9 10 10 10 11 9 9 9 10 10 10 11 10 10 10 10 10 10 10 9 9 7 7 8 7 6 6 6 8 8 8 8 6 8 10 12 12 10 11 8 5 6 8 12 10 16 19 22 24 23 15 12 14 16 16 15 13 14 13 14 16 19 20 20 20 17 15 19 19 19 16 11 7
9 9 9 10 11 13 12 12 10 11 10 9 9 10 11 11 10 8 9 9 9 9 10 11 11 11 10 10 10 9 9 9 8 8 9 8 9 8 6 4 6 7 9 9 8 7 10 11 11 11 9 10 7 4 5 11 16 13 14 15 18 17 20 21 12 15 15 16 15 17 16 16 14 16 18 18 17 19 23 21 20 19 15 8 9
10 10 10 10 11 12 13 13 12 11 11 10 9 10 12 11 10 9 9 9 8 9 10 11 11 10 11 11 11 10 9 9 10 9 8 7 7 8 7 5 4 6 8 9 8 7 8 9 11 12 10 10 10 8 7 5 6 9 10 14 15 15 17 20 16 14 18 22 24 24 16 8 5 9 8 7 8 11 18 20 20 17 11 11 12
11 11 11 11 11 11 12 13 14 13 11 11 12 10 11 11 11 11 9 9 8 8 8 9 11 11 11 10 9 8 9 9 9 8 7 8 7 6 6 7 6 5 4 5 6 7 7 9 9 8 8 8 9 9 6 6 6 6 6 6 5 7 8 7 7 9 11 14 20 19 17 18 13 9 13 12 13 12 12 12 10 10 11 12 12
12 12 12 12 11 11 12 13 13 13 12 12 12 12 11 11 12 12 11 10 9 8 8 9 11 11 10 9 8 8 8 8 8 9 9 9 9 8 7 6 7 6 4 4 5 6 5 6 8 8 8 8 7 7 8 8 7 6 3 4 5 6 6 9 11 11 11 9 6 12 19 17 13 9 7 7 9 9 10 10 10 11 11 12 14
12 12 12 12 12 13 13 14 13 13 13 13 13 12 12 12 12 11 11 11 10 9 8 10 10 10 9 8 7 7 8 8 8 8 7 8 9 10 10 10 9 8 7 4 4 6 6 6 5 6 5 6 7 9 8 1 1 4 2 2 2 4 6 9 11 12 8 8 8 10 12 15 17 17 15 13 13 14 15 15 16 14 13 13 13
11 11 12 13 13 13 13 14 13 13 13 13 13 13 12 12 12 11 12 12 11 10 9 9 9 9 9 9 9 9 8 7 7 7 8 8 8 11 11 11 10 9 11 13 8 7 7 6 7 7 5 6 7 8 7 7 8 8 9 10 8 8 8 6 10 17 10 7 8 9 10 12 15 16 17 17 17 16 16 15 16 16 14 14 13
12 12 12 13 13 14 15 15 14 14 13 13 13 13 12 12 12 11 12 12 11 10 10 9 9 8 9 10 9 9 8 8 8 7 7 8 9 8 9 14 14 12 13 14 15 16 15 12 8 8 8 10 13 15 16 15 15 15 15 13 11 13 12 11 9 7 6 8 10 10 9 11 15 15 13 17 15 16 15 15 15 14 14 14 14
Wind_Direction
167 175 168 174 165 170 163 165 165 171 164 159 163 157 164 159 161 166 160 159 157 158 168 168 165 170 165 167 157 154 153 152 177 138 124 187 154 145 160 143 151 161 156 161 161 154 145 143 137 143 160 149 157 157 103 112 147 179 136 163 178 174 209 207 83 30 43 75 357 107 135 158 136 217 219 165 151 131 141 116 100 120 120 110 90
167 172 169 172 173 171 165 168 166 170 168 163 170 159 162 161 166 165 167 164 163 167 171 174 169 173 169 172 155 160 150 175 166 123 272 151 148 142 168 142 155 159 160 161 157 162 157 146 149 155 156 146 168 106 113 128 149 196 162 183 239 221 121 166 85 320 141 84 113 113 141 146 161 190 203 136 135 128 112 110 189 148 139 140 132
170 172 170 174 174 171 169 168 172 171 169 170 171 163 166 164 164 172 170 171 167 169 171 175 174 174 180 152 185 148 156 179 135 187 157 150 151 156 142 144 160 158 160 164 162 169 162 152 161 158 155 150 161 162 157 169 181 191 184 187 187 172 242 78 121 319 69 83 62 149 111 131 207 206 97 137 129 143 134 125 156 111 112 121 167
171 172 173 174 173 172 170 172 173 170 170 170 172 168 169 167 166 173 170 175 170 164 180 168 170 175 174 161 164 152 159 138 111 127 130 130 150 142 155 152 170 165 167 167 167 163 162 171 161 159 154 168 170 170 170 176 175 186 187 160 230 179 121 156 119 61 25 76 127 97 149 108 114 133 153 122 114 152 142 141 150 121 85 87 169
174 175 173 175 174 172 173 173 173 173 173 171 176 172 172 171 168 171 171 180 170 163 179 163 166 168 174 158 153 120 139 152 162 165 157 146 151 164 151 162 169 171 165 171 159 159 166 170 159 161 160 172 178 167 180 175 180 176 181 173 225 299 131 121 135 118 80 2 51 78 77 109 89 131 104 348 305 139 100 89 5 120 111 99 342
183 178 177 175 174 170 173 174 177 174 174 173 180 173 173 170 167 172 171 177 176 164 177 168 164 170 168 169 170 164 163 166 176 178 167 160 184 150 141 163 166 165 170 175 158 162 166 164 169 165 168 171 188 170 181 160 188 195 163 204 169 47 18 154 139 51 90 78 123 43 343 52 2 7 309 111 307 53 121 109 185 121 113 144 151
182 196 183 178 175 173 173 177 178 176 174 173 180 173 173 167 168 173 172 176 178 167 176 174 169 173 178 177 180 181 175 168 181 172 167 153 205 132 142 156 168 171 164 177 158 167 166 166 173 181 166 172 183 179 180 189 178 199 155 199 162 90 110 218 182 142 83 199 200 159 118 39 65 354 45 82 96 351 329 135 123 135 135 150 176
173 187 205 187 180 178 177 178 180 179 174 173 179 171 173 166 169 174 173 176 179 169 179 181 174 178 181 191 187 184 183 167 169 159 176 183 118 143 151 157 164 178 160 167 169 166 176 171 178 190 178 173 180 184 192 186 170 180 168 162 135 123 119 270 355 12 132 99 50 356 101 57 350 3 59 30 32 136 202 213 158 164 164 141 142
187 188 212 195 185 184 181 180 184 182 176 176 180 168 170 167 170 174 173 178 178 174 179 182 183 180 182 188 187 194 178 175 164 169 148 150 148 143 162 150 162 169 165 166 178 165 179 178 181 190 188 176 184 195 185 181 175 173 172 174 169 147 214 103 294 324 326 87 111 42 21 121 187 54 96 196 288 299 130 79 60 60 89 8 42
204 195 199 206 185 189 185 182 186 188 178 177 176 170 169 168 171 174 175 178 176 176 181 181 186 183 186 191 189 181 189 177 175 166 156 169 163 150 155 153 168 170 169 170 172 177 179 180 185 187 190 181 193 191 184 170 181 186 183 189 174 186 179 175 189 182 329 13 96 101 357 339 20 203 211 192 166 271 313 158 141 158 85 97 172
192 204 209 198 200 192 186 187 187 190 182 178 180 176 171 172 172 175 175 178 176 178 181 181 185 185 190 194 189 185 189 179 171 172 160 168 174 171 172 173 176 177 175 172 179 179 178 187 189 179 189 167 203 175 185 185 185 184 191 190 188 193 190 191 237 80 201 236 208 193 250 205 168 3 339 357 26 232 284 285 162 67 112 137 19
181 208 197 198 196 194 192 188 188 190 188 180 184 181 174 175 175 175 176 179 178 179 182 184 185 187 192 192 192 192 187 181 187 167 178 177 180 181 177 178 188 176 188 173 177 185 170 189 193 172 188 179 192 190 197 197 197 181 184 188 195 195 207 220 246 216 235 180 268 183 205 226 160 249 241 149 297 325 313 303 354 166 234 124 140
216 191 265 198 179 226 196 182 190 191 190 184 187 183 178 176 176 177 176 179 179 179 182 185 186 189 192 191 195 194 191 193 187 189 188 188 187 183 178 183 187 183 191 183 190 176 173 177 190 172 181 192 193 187 203 210 204 188 186 191 194 195 203 206 209 214 216 254 252 289 255 286 175 209 179 254 162 167 246 284 327 88 208 133 105
354 347 69 39 315 228 186 183 188 189 193 187 190 189 181 179 178 181 178 178 178 181 180 185 189 190 189 193 194 191 198 194 193 197 191 193 192 193 191 188 187 191 194 193 190 177 177 176 179 180 173 186 185 184 197 200 208 201 186 197 202 197 208 208 220 226 236 210 226 271 266 232 234 213 180 217 219 179 214 248 70 312 279 116 168
265 233 184 141 204 269 218 178 185 191 195 189 191 192 183 181 179 182 180 180 179 181 182 185 187 189 188 194 192 193 197 194 201 199 195 197 199 197 196 194 194 193 194 185 197 185 186 172 180 183 174 181 187 196 200 200 197 216 195 197 214 183 207 209 208 221 214 211 234 229 276 282 301 333 262 185 250 250 243 17 179 281 284 202 156
186 219 248 157 198 224 206 186 194 189 198 195 192 192 188 184 181 184 183 181 181 182 185 187 188 187 190 190 193 196 192 196 197 201 199 198 198 199 196 200 196 186 198 187 186 190 188 182 181 191 184 182 189 195 201 200 196 210 205 196 209 197 190 199 219 215 227 213 224 233 239 278 253 235 288 325 308 10 4 360 54 243 316 301 83
61 115 207 163 200 225 187 200 197 198 209 207 200 194 190 184 182 185 184 184 183 184 186 188 188 190 191 190 194 193 194 198 196 197 202 197 196 202 195 197 197 192 192 191 185 188 188 195 195 195 188 193 191 196 197 200 193 206 204 201 212 208 186 199 214 219 234 217 216 210 219 229 252 352 293 277 26 17 274 211 311 331 42 324 293
47 13 356 142 202 195 195 191 197 200 201 211 209 194 193 190 187 186 186 184 184 186 189 188 188 192 190 193 195 196 198 200 201 193 201 197 200 200 201 195 200 196 200 187 188 184 189 194 197 207 195 201 191 201 196 200 195 209 206 210 208 212 198 200 210 221 216 232 236 223 201 223 217 222 221 243 204 181 239 233 215 182 133 299 353
44 39 1 24 54 34 167 213 212 259 169 92 309 236 202 202 197 195 191 187 187 189 190 187 190 192 192 196 194 197 200 202 204 200 195 204 203 196 209 197 197 200 193 200 188 192 189 190 200 202 202 205 202 206 194 202 201 213 209 214 196 205 205 208 210 218 228 214 224 236 225 239 241 235 236 202 200 187 214 241 212 223 227 212 311
62 54 23 22 86 133 202 194 181 161 235 148 209 236 225 217 212 205 191 192 191 193 184 190 190 193 194 191 195 197 199 203 203 203 201 201 207 204 201 203 201 200 195 194 201 199 195 195 196 207 203 201 200 207 203 199 208 209 216 218 193 201 211 211 219 208 222 205 209 220 227 236 235 238 239 246 209 207 229 228 212 205 201 224 216
44 62 55 28 27 47 41 188 146 151 199 218 201 216 217 203 219 207 194 194 195 199 191 192 190 196 193 190 194 195 197 199 203 201 208 204 202 211 204 208 196 207 199 194 202 203 201 202 208 200 212 200 200 204 204 201 202 210 220 219 217 195 210 212 216 225 231 221 203 213 220 224 234 235 231 232 229 203 206 229 246 215 220 205 203
40 39 57 54 16 22 31 41 134 157 215 203 221 218 228 216 187 213 196 211 203 197 203 194 193 195 195 193 196 194 196 199 202 201 205 205 205 201 209 207 203 201 210 202 199 205 204 204 206 207 212 213 196 205 209 206 205 207 214 210 215 210 205 218 216 216 222 228 209 216 223 219 213 227 233 230 236 226 200 208 206 220 230 214 189
32 33 51 62 41 28 35 34 70 123 165 218 213 247 231 212 249 219 202 200 203 200 201 197 199 190 195 194 198 195 196 198 202 203 204 206 202 202 201 206 210 203 201 214 201 207 201 205 209 203 205 215 210 202 212 217 209 207 213 225 212 205 212 217 215 219 220 216 219 217 220 222 216 215 221 235 239 245 245 219 205 211 217 226 195
47 35 29 50 54 44 32 26 28 42 55 46 36 9 358 356 333 292 238 195 223 207 195 210 201 194 194 194 195 200 199 199 204 204 206 207 205 199 198 204 207 215 200 203 214 209 203 200 207 206 202 209 209 212 209 210 217 212 212 218 227 220 215 217 218 218 216 218 219 221 223 220 221 216 218 223 230 236 237 256 252 238 231 240 266
48 44 35 32 40 43 40 31 27 26 43 47 41 38 28 22 147 285 283 258 222 201 209 202 201 200 198 196 196 201 201 204 206 207 207 208 211 204 197 203 205 212 212 199 204 213 208 201 206 206 206 206 209 210 210 212 210 213 215 216 219 222 224 225 226 223 225 219 217 221 219 223 223 222 213 220 226 223 230 231 226 226 230 232 231
51 47 42 34 30 36 34 28 29 28 35 45 35 25 28 3 353 313 118 312 289 248 227 229 206 209 204 199 202 201 205 205 209 211 209 210 211 214 202 197 208 209 213 211 199 204 210 207 208 209 209 207 209 210 209 213 212 210 210 215 218 220 220 222 224 224 225 225 223 221 225 220 221 221 222 219 224 224 221 229 227 223 223 221 223
49 50 52 46 38 34 29 21 18 19 25 36 32 28 42 11 357 4 335 25 157 262 232 208 174 213 206 205 205 209 208 208 207 214 215 210 213 213 214 205 201 210 211 214 207 202 204 209 208 212 212 209 208 211 210 211 216 216 210 212 219 217 218 219 222 225 225 222 222 223 221 222 223 222 222 222 218 223 223 221 223 229 233 228 221
53 48 45 44 43 39 34 28 21 16 16 25 25 21 13 48 33 342 345 340 352 339 335 287 229 187 191 207 220 216 213 214 211 208 219 221 215 216 214 216 207 204 213 215 217 207 202 207 209 211 214 213 207 211 211 212 213 216 214 213 218 223 218 217 221 223 228 229 224 224 224 219 222 223 224 223 225 219 218 224 220 220 223 224 230
54 50 46 41 41 38 36 33 29 22 18 20 16 7 1 11 21 31 34 326 310 343 359 324 279 271 213 203 212 213 212 215 218 212 212 221 226 221 217 216 217 216 211 217 219 219 207 205 209 210 212 215 213 209 211 209 210 212 218 218 215 218 224 222 219 222 222 227 231 226 224 227 215 215 219 226 230 225 222 219 223 221 219 224 227
53 46 44 42 38 36 33 34 31 27 19 16 16 12 8 359 1 7 14 356 316 332 354 18 340 288 256 240 213 220 215 210 214 218 214 215 223 226 224 219 220 221 219 214 221 222 222 210 208 209 212 215 217 215 206 205 205 208 209 218 216 217 222 223 223 226 227 223 226 233 231 217 212 199 203 209 224 239 245 254 228 214 219 225 226
49 44 39 37 37 30 28 27 28 28 21 15 13 12 12 6 357 357 359 8 325 330 346 341 347 329 298 265 235 224 224 217 212 217 217 219 221 224 227 227 223 226 226 218 220 225 225 225 216 211 211 215 217 220 198 194 201 208 211 212 220 219 218 225 225 223 230 233 230 227 234 223 203 196 196 198 203 216 221 236 258 268 275 242 226
42 40 35 31 33 33 22 20 23 22 25 18 10 12 13 9 4 358 348 349 345 359 357 4 3 333 328 306 272 242 227 223 221 217 217 218 220 221 227 225 224 223 223 227 224 224 229 229 227 221 216 214 220 218 196 190 196 201 210 216 217 221 221 221 226 227 225 228 234 236 233 232 221 217 214 195 202 206 213 223 233 246 249 252 256
35 38 34 28 27 28 22 16 17 13 23 18 15 12 9 7 8 359 356 350 348 351 357 5 11 339 318 310 289 263 238 231 228 225 224 223 220 221 222 225 225 222 222 219 226 228 225 229 233 232 228 221 219 211 194 190 192 196 203 216 224 221 225 226 225 226 229 228 228 231 241 240 240 196 201 208 200 205 212 217 223 230 242 249 255
37 31 33 27 24 22 20 12 17 9 18 15 18 7 7 1 0 21 17 357 354 354 354 349 328 251 282 304 301 283 268 248 242 239 231 229 228 226 227 226 227 227 223 224 223 224 226 225 230 235 237 236 231 201 188 188 193 194 199 204 224 230 229 230 229 230 230 228 227 232 229 233 243 238 201 206 203 207 207 213 220 226 231 236 236
37 32 31 28 22 15 15 5 14 8 16 10 12 5 2 6 359 6 8 17 6 0 358 349 336 326 320 304 320 314 303 290 267 247 243 238 234 235 234 237 236 228 225 226 229 226 225 226 227 228 233 237 238 215 183 188 191 193 198 199 218 229 235 234 234 233 234 236 229 229 230 231 227 233 240 205 215 210 210 211 216 223 225 230 229
25 22 29 28 20 13 7 1 0 359 14 5 8 2 358 2 0 4 359 16 15 1 357 358 341 337 337 337 329 304 284 285 293 289 269 251 244 250 253 260 252 253 256 240 224 233 233 229 228 229 231 233 235 219 187 190 189 192 192 197 213 226 236 242 239 236 235 232 235 235 233 232 229 225 222 221 208 212 217 217 218 220 223 226 229
31 13 12 27 20 360 358 349 359 5 8 0 358 358 353 358 357 2 3 9 10 359 351 348 345 341 343 339 335 326 309 302 294 275 293 318 333 327 317 311 319 318 307 307 296 275 273 252 242 233 234 238 237 218 183 185 190 190 183 200 208 219 232 240 245 243 238 236 233 230 231 236 232 229 218 203 208 202 219 222 225 226 228 229 231
12 355 7 17 6 347 345 339 344 8 7 352 353 353 351 354 353 354 359 2 6 2 348 343 340 343 341 339 334 327 322 316 300 310 351 50 338 318 272 267 293 329 296 288 349 313 315 318 298 272 249 241 245 226 179 185 186 181 185 197 207 217 227 234 241 243 243 241 234 231 225 228 233 232 216 197 199 197 215 223 226 230 232 235 237
4 355 4 2 350 338 328 331 339 355 358 337 352 351 350 351 351 349 349 357 357 353 346 340 336 337 332 329 324 321 320 319 328 328 323 23 302 312 322 323 297 262 251 245 226 213 216 230 264 298 322 295 264 249 178 187 185 179 190 200 206 218 227 232 234 238 240 243 243 233 225 225 226 231 220 197 197 196 214 219 224 231 235 236 237
345 8 11 339 332 327 334 340 338 351 333 329 340 346 344 343 345 341 346 350 351 344 340 333 330 329 329 324 319 319 314 322 330 344 353 336 356 351 350 344 336 295 278 285 280 273 255 247 219 217 225 253 319 318 331 225 184 186 191 198 211 219 230 232 233 236 235 234 236 240 226 218 225 225 219 201 199 200 211 218 221 227 232 235 235
343 1 345 329 335 338 337 327 336 335 324 328 339 338 334 333 333 332 340 344 342 338 334 333 329 329 332 327 328 335 334 333 338 346 339 328 334 342 336 284 280 298 288 268 272 260 258 267 263 262 251 227 200 176 192 250 261 209 198 203 214 222 229 234 234 233 236 236 231 230 238 212 212 220 218 201 201 205 211 217 220 226 228 234 240
355 338 331 342 334 337 328 327 337 328 331 337 336 325 322 322 322 325 333 333 335 335 333 331 329 327 328 332 331 330 328 331 335 333 325 315 312 299 278 276 274 272 280 280 277 272 263 253 243 240 227 250 232 208 201 178 183 209 225 212 215 225 227 235 236 236 235 238 237 234 233 222 205 212 215 208 204 202 213 220 224 227 233 234 245
338 332 345 344 336 331 330 333 330 332 332 323 319 313 310 311 310 319 325 329 331 330 332 329 326 324 328 327 325 323 327 329 332 316 297 291 287 270 274 283 278 276 270 269 266 270 268 267 269 255 241 233 229 182 216 205 185 189 197 211 222 227 236 241 246 245 240 242 241 243 241 224 204 209 213 212 207 206 205 220 228 233 233 228 234
336 341 343 342 329 329 328 326 326 325 324 319 308 305 302 301 303 314 318 322 323 329 328 326 324 325 326 322 321 324 325 317 317 323 311 297 282 273 270 279 292 291 280 265 260 263 268 271 268 265 258 252 231 208 197 222 210 198 204 204 210 216 216 240 253 261 256 253 247 249 245 237 203 205 211 211 211 205 213 219 224 230 232 227 234
336 336 339 332 329 324 320 317 319 319 317 316 309 299 299 296 299 302 308 312 315 321 326 323 323 323 321 320 322 320 314 308 322 325 313 305 296 286 271 262 275 266 263 266 264 258 261 263 263 262 262 263 260 227 211 203 217 226 214 209 217 215 220 226 234 252 264 264 274 266 261 251 210 206 208 208 210 212 216 219 220 223 224 227 226
329 329 330 327 318 315 313 313 313 313 315 314 311 306 298 297 298 293 290 293 305 318 320 319 318 318 319 319 319 318 316 325 328 316 305 294 292 295 289 280 270 282 282 274 270 273 269 263 262 263 264 269 266 271 256 236 206 233 233 230 219 214 218 227 222 243 268 296 299 306 322 317 233 209 201 207 214 217 219 224 226 222 220 223 223
321 326 325 314 314 312 311 312 311 313 312 308 304 300 295 293 290 289 286 286 293 306 308 312 314 315 314 312 313 318 327 318 307 307 314 317 308 301 295 290 277 281 314 324 316 305 290 277 267 266 265 266 269 266 264 257 230 218 203 216 197 215 208 247 288 258 263 267 290 301 300 306 302 212 211 211 216 210 209 220 227 224 223 224 220
319 317 318 312 308 307 306 305 305 305 304 302 301 299 298 296 293 291 292 294 291 288 304 311 311 309 305 310 311 316 313 312 322 324 320 317 311 308 303 296 296 299 302 297 298 300 311 319 313 302 290 280 275 274 270 262 254 243 205 160 177 189 188 193 209 223 211 226 241 289 298 283 264 244 230 233 230 223 217 209 215 217 218 222 226
311 314 313 309 312 310 308 304 302 303 302 300 299 299 300 297 291 287 286 284 283 290 304 305 304 301 301 301 303 312 315 317 312 308 306 310 314 315 317 312 306 302 292 285 279 282 279 273 266 275 294 299 291 288 281 277 77 130 195 219 208 208 205 200 201 184 182 189 212 233 245 262 269 257 248 240 233 236 236 236 231 227 224 220 218
306 305 306 307 307 308 309 308 304 300 297 295 294 293 293 291 290 286 283 279 283 291 297 298 299 300 301 313 322 316 310 307 306 310 312 308 312 306 286 290 295 287 282 280 264 258 262 279 280 270 267 273 276 280 306 301 274 253 230 213 216 224 237 236 182 178 181 200 217 237 241 254 260 260 250 241 240 234 234 235 238 232 230 229 221
307 305 306 311 310 309 309 308 308 304 299 292 288 287 287 287 283 279 275 272 274 280 284 286 290 295 316 318 310 308 314 311 307 306 309 310 306 305 271 239 242 253 267 273 276 273 270 261 252 278 272 261 272 282 286 283 279 271 268 260 229 224 226 229 215 132 165 213 218 211 225 243 253 257 256 248 237 237 235 236 238 231 226 230 234